Weather History for KGNT - March, 2014

Change the Weather History Date:

Monday, March 24, 2014

  Actual Average Record
Temperature  
Mean Temperature 42 °F -  
Max Temperature 63 °F 62 °F 75 °F (1990)
Min Temperature 20 °F 26 °F 11 °F (2013)
Degree Days  
Heating Degree Days 24    
Moisture  
Dew Point 4 °F    
Average Humidity 25    
Maximum Humidity 54    
Minimum Humidity 7    
Precipitation  
Precipitation 0.00 in - - ()
Sea Level Pressure  
Sea Level Pressure 30.22 in    
Wind  
Wind Speed 6 mph (NNW)    
Max Wind Speed 18 mph    
Max Gust Speed 25 mph    
Visibility 10 miles    
Events      
Averages and records for this station are not official NWS values.
T = Trace of Precipitation, MM = Missing Value Source: NWS Daily Summary

Daily Weather History Graph

Daily Weather History Graph

Search for Another Location

Airport or City:

Trip Planner

Search our weather history database for the weather conditions in past years. The results will help you decide how hot, cold, wet, or windy it might be!

Date:

Astronomy

Mar. 24, 2014 Rise Set
Actual Time 7:09 AM MDT 7:26 PM MDT
Civil Twilight 6:44 AM MDT 7:52 PM MDT
Nautical Twilight 6:14 AM MDT 8:21 PM MDT
Astronomical Twilight 5:44 AM MDT 8:51 PM MDT
Moon 2:30 AM MDT (3/24) 1:07 PM MDT (3/24)
Length of Visible Light 13h 07m
Length of Day
12h 17m
Last Quarter, 42% of the Moon is Illuminated
Mar 24
Last Quarter
Mar 30
New
Apr 7
First Quarter
Apr 15
Full
Apr 22
Last Quarter

Hourly Weather History & Observations

Time (MDT) Temp. Windchill Dew Point Humidity Pressure Visibility Wind Dir Wind Speed Gust Speed Precip Events Conditions
12:15 AM 39.0 °F 36.8 °F 10.2 °F 31% 30.21 in 10.0 mi NNW 3.5 mph - N/A   Clear
12:35 AM 36.0 °F - 10.2 °F 34% 30.21 in 10.0 mi Calm Calm - N/A   Clear
12:55 AM 34.2 °F - 10.2 °F 37% 30.21 in 10.0 mi Calm Calm - N/A   Clear
1:15 AM 35.6 °F - 9.5 °F 34% 30.21 in 10.0 mi Calm Calm - N/A   Clear
1:35 AM 35.1 °F - 10.0 °F 35% 30.21 in 10.0 mi Calm Calm - N/A   Clear
1:55 AM 31.3 °F 26.6 °F 8.6 °F 39% 30.21 in 10.0 mi NNW 4.6 mph - N/A   Clear
2:15 AM 34.2 °F 29.0 °F 9.9 °F 36% 30.21 in 10.0 mi NW 5.8 mph - N/A   Clear
2:35 AM 31.5 °F 23.5 °F 9.3 °F 40% 30.21 in 10.0 mi NW 9.2 mph - N/A   Scattered Clouds
2:55 AM 31.3 °F 23.9 °F 9.3 °F 40% 30.21 in 10.0 mi WNW 8.1 mph - N/A   Scattered Clouds
3:15 AM 31.1 °F 24.5 °F 10.0 °F 41% 30.20 in 10.0 mi West 6.9 mph - N/A   Scattered Clouds
3:35 AM 30.4 °F - 9.7 °F 42% 30.20 in 10.0 mi Calm Calm - N/A   Clear
3:55 AM 26.6 °F 19.1 °F 8.1 °F 46% 30.20 in 10.0 mi NNW 6.9 mph - N/A   Clear
4:15 AM 24.6 °F 12.7 °F 7.9 °F 49% 30.20 in 10.0 mi NW 13.8 mph - N/A   Clear
4:35 AM 23.2 °F 17.2 °F 6.1 °F 48% 30.20 in 10.0 mi NNW 4.6 mph - N/A   Clear
4:55 AM 21.0 °F 14.6 °F 5.4 °F 51% 30.21 in 10.0 mi North 4.6 mph - N/A   Clear
5:15 AM 21.4 °F 13.8 °F 6.3 °F 52% 30.21 in 10.0 mi NNW 5.8 mph - N/A   Clear
5:35 AM 22.5 °F 10.5 °F 7.5 °F 53% 30.21 in 10.0 mi NW 12.7 mph - N/A   Clear
5:55 AM 21.7 °F 10.8 °F 7.5 °F 54% 30.21 in 10.0 mi NW 10.4 mph - N/A   Clear
6:15 AM 21.7 °F 13.2 °F 7.2 °F 54% 30.22 in 10.0 mi NW 6.9 mph - N/A   Clear
6:35 AM 21.7 °F 11.5 °F 6.6 °F 52% 30.23 in 10.0 mi WNW 9.2 mph - N/A   Clear
6:55 AM 20.7 °F 11.0 °F 5.7 °F 53% 30.24 in 10.0 mi NNW 8.1 mph - N/A   Clear
7:15 AM 21.0 °F 11.4 °F 6.8 °F 54% 30.24 in 10.0 mi NW 8.1 mph - N/A   Clear
7:35 AM 21.7 °F 13.2 °F 6.6 °F 52% 30.25 in 10.0 mi NW 6.9 mph - N/A   Clear
7:55 AM 24.6 °F 17.7 °F 6.6 °F 46% 30.26 in 10.0 mi NNW 5.8 mph - N/A   Clear
8:15 AM 25.7 °F 18.0 °F 5.9 °F 43% 30.26 in 10.0 mi NNW 6.9 mph - N/A   Clear
8:35 AM 30.2 °F 21.3 °F 7.7 °F 39% 30.26 in 10.0 mi NW 10.4 mph - N/A   Clear
8:55 AM 33.1 °F 26.9 °F 8.1 °F 35% 30.26 in 10.0 mi NNW 6.9 mph - N/A   Clear
9:15 AM 36.5 °F 32.7 °F 9.0 °F 32% 30.26 in 10.0 mi NNW 4.6 mph - N/A   Clear
9:35 AM 39.7 °F 36.5 °F 9.1 °F 28% 30.26 in 10.0 mi NNW 4.6 mph - N/A   Clear
9:55 AM 42.4 °F - 9.7 °F 26% 30.26 in 10.0 mi Calm Calm - N/A   Clear
10:15 AM 46.6 °F - 10.9 °F 24% 30.26 in 10.0 mi Calm Calm - N/A   Clear
10:35 AM 50.0 °F - 9.5 °F 20% 30.26 in 10.0 mi Calm Calm - N/A   Clear
10:55 AM 53.8 °F - 6.1 °F 15% 30.26 in 10.0 mi NW 9.2 mph - N/A   Clear
11:15 AM 55.4 °F - 5.9 °F 14% 30.26 in 10.0 mi NNW 10.4 mph - N/A   Clear
11:35 AM 55.8 °F - 5.4 °F 13% 30.25 in 10.0 mi North 10.4 mph 17.3 mph N/A   Clear
12:15 PM 57.9 °F - 4.8 °F 12% 30.24 in 10.0 mi North 12.7 mph 20.7 mph N/A   Clear
12:35 PM 58.1 °F - 4.8 °F 12% 30.23 in 10.0 mi North 8.1 mph 18.4 mph N/A   Clear
12:55 PM 59.0 °F - 3.9 °F 11% 30.23 in 10.0 mi North 11.5 mph 19.6 mph N/A   Clear
1:15 PM 61.3 °F - 4.1 °F 10% 30.22 in 10.0 mi NNW 18.4 mph 23.0 mph N/A   Clear
1:35 PM 60.8 °F - 3.6 °F 10% 30.21 in 10.0 mi NNW 15.0 mph 20.7 mph N/A   Clear
1:55 PM 61.9 °F - 1.8 °F 9% 30.21 in 10.0 mi NNW 12.7 mph 19.6 mph N/A   Clear
2:15 PM 61.7 °F - 0.3 °F 9% 30.20 in 10.0 mi NNW 16.1 mph 20.7 mph N/A   Clear
2:35 PM 61.3 °F - 0.1 °F 9% 30.19 in 10.0 mi NNW 15.0 mph 25.3 mph N/A   Clear
2:55 PM 62.2 °F - 0.5 °F 8% 30.18 in 10.0 mi NNW 11.5 mph 18.4 mph N/A   Clear
3:15 PM 62.6 °F - 0.1 °F 8% 30.18 in 10.0 mi North 11.5 mph 18.4 mph N/A   Clear
3:35 PM 63.3 °F - 0.3 °F 8% 30.18 in 10.0 mi NW 16.1 mph - N/A   Clear
3:55 PM 63.0 °F - -0.6 °F 8% 30.17 in 10.0 mi NNW 15.0 mph 23.0 mph N/A   Clear
4:15 PM 63.5 °F - -2.2 °F 7% 30.17 in 10.0 mi NNW 13.8 mph 20.7 mph N/A   Clear
4:35 PM 63.1 °F - 0.1 °F 8% 30.17 in 10.0 mi NW 13.8 mph 23.0 mph N/A   Clear
4:55 PM 63.0 °F - -0.4 °F 8% 30.17 in 10.0 mi North 11.5 mph 16.1 mph N/A   Clear
5:15 PM 62.8 °F - -0.4 °F 8% 30.17 in 10.0 mi NNW 11.5 mph 20.7 mph N/A   Clear
5:35 PM 62.4 °F - -0.2 °F 8% 30.17 in 10.0 mi NNW 9.2 mph - N/A   Clear
5:55 PM 62.1 °F - 0.3 °F 8% 30.17 in 10.0 mi NNW 12.7 mph 16.1 mph N/A   Clear
6:15 PM 61.0 °F - -0.2 °F 9% 30.17 in 10.0 mi NNW 12.7 mph 18.4 mph N/A   Clear
6:35 PM 60.1 °F - -0.8 °F 9% 30.17 in 10.0 mi NNW 10.4 mph 17.3 mph N/A   Clear
6:55 PM 58.8 °F - -0.8 °F 9% 30.18 in 10.0 mi North 9.2 mph - N/A   Clear
7:15 PM 56.3 °F - -0.4 °F 10% 30.18 in 10.0 mi North 11.5 mph 17.3 mph N/A   Clear
7:35 PM 53.1 °F - -0.9 °F 11% 30.18 in 10.0 mi North 8.1 mph - N/A   Clear
7:55 PM 47.7 °F - -2.6 °F 12% 30.18 in 10.0 mi NW 6.9 mph - N/A   Clear
8:15 PM 45.9 °F 40.8 °F -2.2 °F 14% 30.20 in 10.0 mi NW 10.4 mph - N/A   Clear
8:35 PM 45.1 °F 39.5 °F -2.2 °F 14% 30.21 in 10.0 mi WNW 11.5 mph - N/A   Clear
8:55 PM 40.5 °F 37.3 °F -1.1 °F 17% 30.22 in 10.0 mi WNW 4.6 mph - N/A   Clear
9:15 PM 36.9 °F 31.4 °F -1.1 °F 20% 30.23 in 10.0 mi WNW 6.9 mph - N/A   Clear
9:35 PM 37.9 °F 35.5 °F -1.3 °F 19% 30.23 in 10.0 mi NNW 3.5 mph - N/A   Clear
9:55 PM 37.0 °F 32.4 °F -2.0 °F 19% 30.24 in 10.0 mi NNW 5.8 mph - N/A   Clear
10:15 PM 43.0 °F 38.8 °F -0.2 °F 17% 30.24 in 10.0 mi NW 6.9 mph - N/A   Clear
10:35 PM 41.7 °F - -1.7 °F 16% 30.24 in 10.0 mi Calm Calm - N/A   Clear
10:55 PM 39.9 °F 36.7 °F -1.5 °F 18% 30.24 in 10.0 mi North 4.6 mph - N/A   Clear
11:15 PM 40.5 °F 37.3 °F -0.9 °F 18% 30.24 in 10.0 mi NNW 4.6 mph - N/A   Clear
11:35 PM 35.8 °F 33.0 °F -1.5 °F 21% 30.24 in 10.0 mi North 3.5 mph - N/A   Clear
11:55 PM 35.1 °F 32.2 °F -1.7 °F 21% 30.24 in 10.0 mi North 3.5 mph - N/A   Clear